Regional Weather Roundup
Issued by NWS

Home | Current Version | Previous Version | Text Only | Print | Product List | Glossary On
Versions: 1 2 3 4 5 6 7 8 9 10 11 12 13 14 15 16 17 18 19 20 21 22 23 24 25 26 27 28 29 30 31 32 33 34 35 36 37 38 39 40 41 42 43 44 45 46 47 48 49 50
000
ASUS43 KBIS 232310
RWRND

NORTH DAKOTA REGIONAL WEATHER ROUNDUP
NATIONAL WEATHER SERVICE BISMARCK ND
600 PM CDT WED MAY 23 2018

NOTE: "FAIR" INDICATES FEW OR NO CLOUDS BELOW 12,000 FEET WITH NO
SIGNIFICANT WEATHER AND/OR OBSTRUCTIONS TO VISIBILITY.


NDZ001>003-009>011-017-240000-
NORTHWEST NORTH DAKOTA

CITY           SKY/WX    TMP DP  RH WIND       PRES   REMARKS
WILLISTON      CLOUDY    72  60  66 NE7       29.84F
MINOT          PTSUNNY   85  56  37 SE14      29.83F
MINOT AFB      CLOUDY    82  59  45 SE13      29.81F
$$

NDZ018>021-031>035-040>046-240000-
SOUTHWEST NORTH DAKOTA

CITY           SKY/WX    TMP DP  RH WIND       PRES   REMARKS
BISMARCK       MOSUNNY   82  66  58 SE13      29.83F
DICKINSON      MOSUNNY   78  59  51 S13       29.82F
GARRISON         N/A     76  60  57 SE12      29.84F
HETTINGER ARPT SUNNY     76  58  53 S9        29.85F
$$

NDZ004>008-012>016-024-026-027-054-240000-
NORTHEAST NORTH DAKOTA

CITY           SKY/WX    TMP DP  RH WIND       PRES   REMARKS
GRAND FORKS    PTSUNNY   82  61  48 S20G26    29.92F
GRND FRKS AFB  FAIR      82  61  49 SE20G25   29.92F
DEVILS LAKE    FAIR      80  61  52 S17       29.91F
$$

NDZ022-023-025-028>030-036>039-047>053-240000-
SOUTHEAST NORTH DAKOTA

CITY           SKY/WX    TMP DP  RH WIND       PRES   REMARKS
FARGO          FAIR      77  60  55 SE13      29.95F
JAMESTOWN      PTSUNNY   77  66  68 SE18G24   29.91F
$$





USA.gov is the U.S. government's official web portal to all federal, state and local government web resources and services.